When you browse on this site, cookies collect data to enhance your experience and personalize the content and advertising you see.
Visit our Privacy Policy to learn more. By continuing to use the site, you agree to this use of cookies and data.
  • în România
  • Lista ţărilor
  • Pe 7 zile
  • Temperatura apei
  • Meteo pe hartă
  • Widget-uri
  • user-avatar
    Intrare

    Meteo pe oră la Rio Branco

    Astăzi, 18 Ianuarie, Sâmbătă

    Timp Temperatura Precipitaţii Vânt Presiune Umiditate
    00:00 +24°C° 0 mm 0 m/s 746 mmHg 95%
    01:00 +24°C° 0 mm 0 m/s 746 mmHg 96%
    02:00 +24°C° 0 mm 0 m/s 746 mmHg 96%
    03:00 +23°C° 0 mm 0 m/s 746 mmHg 97%
    04:00 +23°C° 0 mm 0 m/s 745 mmHg 97%
    05:00 +24°C° 0 mm 0 m/s 746 mmHg 96%
    06:00 +24°C° 0 mm 0 m/s 746 mmHg 95%
    07:00 +24°C° 0 mm 0 m/s 747 mmHg 94%
    08:00 +25°C° 0 mm 0 m/s 747 mmHg 89%
    09:00 +26°C° 0 mm 0 m/s 747 mmHg 84%
    10:00 +27°C° 0 mm 0 m/s 747 mmHg 79%
    11:00 +31°C° 0 mm 1 m/s 746 mmHg 71%
    12:00 +33°C° 0 mm 1 m/s 746 mmHg 63%
    13:00 +35°C° 0 mm 1 m/s 745 mmHg 55%
    14:00 +34°C° 0.1 mm 1 m/s 744 mmHg 58%
    15:00 +34°C° 0.1 mm 1 m/s 743 mmHg 60%
    16:00 +33°C° 0.1 mm 1 m/s 743 mmHg 63%
    17:00 +32°C° 0 mm 1 m/s 743 mmHg 68%
    18:00 +30°C° 0 mm 1 m/s 743 mmHg 72%
    19:00 +29°C° 0 mm 1 m/s 744 mmHg 77%
    20:00 +28°C° 0.8 mm 1 m/s 744 mmHg 83%
    21:00 +25°C° 0.8 mm 0 m/s 745 mmHg 88%
    22:00 +24°C° 0.8 mm 0 m/s 746 mmHg 93%
    23:00 +24°C° 0.4 mm 0 m/s 745 mmHg 95%

    Mâine, 19 Ianuarie, Duminică

    Timp Temperatura Precipitaţii Vânt Presiune Umiditate
    00:00 +26°C° 0.4 mm 1 m/s 745 mmHg 96%
    01:00 +25°C° 0.4 mm 1 m/s 745 mmHg 97%
    02:00 +25°C° 0 mm 1 m/s 745 mmHg 97%
    03:00 +23°C° 0 mm 0 m/s 745 mmHg 97%
    04:00 +23°C° 0 mm 0 m/s 745 mmHg 97%
    05:00 +23°C° 0.1 mm 0 m/s 745 mmHg 97%
    06:00 +24°C° 0.1 mm 0 m/s 746 mmHg 96%
    07:00 +27°C° 0.1 mm 1 m/s 746 mmHg 95%
    08:00 +29°C° 0.1 mm 1 m/s 746 mmHg 85%
    09:00 +31°C° 0.1 mm 1 m/s 746 mmHg 76%
    10:00 +33°C° 0.1 mm 1 m/s 746 mmHg 66%
    11:00 +33°C° 1.1 mm 1 m/s 745 mmHg 66%
    12:00 +34°C° 1.1 mm 1 m/s 745 mmHg 66%
    13:00 +34°C° 1.1 mm 1 m/s 744 mmHg 65%
    14:00 +34°C° 0.2 mm 1 m/s 743 mmHg 65%
    15:00 +34°C° 0.2 mm 1 m/s 742 mmHg 65%
    16:00 +34°C° 0.2 mm 1 m/s 742 mmHg 65%
    17:00 +32°C° 0 mm 1 m/s 742 mmHg 70%
    18:00 +28°C° 0 mm 0 m/s 742 mmHg 75%
    19:00 +26°C° 0 mm 0 m/s 743 mmHg 80%
    20:00 +26°C° 0 mm 0 m/s 743 mmHg 82%
    21:00 +28°C° 0 mm 1 m/s 744 mmHg 85%
    22:00 +27°C° 0 mm 1 m/s 745 mmHg 87%
    23:00 +27°C° 0 mm 1 m/s 744 mmHg 89%

    Poimâine, 20 Ianuarie, Luni

    Timp Temperatura Precipitaţii Vânt Presiune Umiditate
    00:00 +26°C° 0 mm 1 m/s 744 mmHg 90%
    01:00 +26°C° 0 mm 1 m/s 743 mmHg 92%
    02:00 +26°C° 0 mm 1 m/s 743 mmHg 93%
    03:00 +26°C° 0 mm 1 m/s 743 mmHg 93%
    04:00 +23°C° 0 mm 0 m/s 743 mmHg 94%
    05:00 +26°C° 0 mm 1 m/s 744 mmHg 91%
    06:00 +27°C° 0 mm 1 m/s 744 mmHg 88%
    07:00 +28°C° 0 mm 1 m/s 745 mmHg 86%
    08:00 +30°C° 0.3 mm 1 m/s 745 mmHg 79%
    09:00 +31°C° 0.3 mm 1 m/s 745 mmHg 73%
    10:00 +33°C° 0.3 mm 1 m/s 745 mmHg 67%
    11:00 +34°C° 0.4 mm 1 m/s 744 mmHg 63%
    12:00 +35°C° 0.4 mm 1 m/s 743 mmHg 60%
    13:00 +36°C° 0.4 mm 1 m/s 742 mmHg 56%
    14:00 +35°C° 0.1 mm 1 m/s 742 mmHg 58%
    15:00 +35°C° 0.1 mm 1 m/s 741 mmHg 60%
    16:00 +35°C° 0.1 mm 1 m/s 741 mmHg 62%
    17:00 +33°C° 0.1 mm 1 m/s 741 mmHg 68%
    18:00 +31°C° 0.1 mm 1 m/s 741 mmHg 75%
    19:00 +29°C° 0.1 mm 1 m/s 742 mmHg 81%
    20:00 +28°C° 0.1 mm 1 m/s 742 mmHg 84%
    21:00 +28°C° 0.1 mm 1 m/s 743 mmHg 87%
    22:00 +27°C° 0.1 mm 1 m/s 744 mmHg 89%
    23:00 +27°C° 0.4 mm 1 m/s 743 mmHg 92%

    21 Ianuarie, Marţi

    Timp Temperatura Precipitaţii Vânt Presiune Umiditate
    00:00 +26°C° 0.4 mm 1 m/s 743 mmHg 94%
    01:00 +26°C° 0.4 mm 1 m/s 743 mmHg 96%
    02:00 +26°C° 0 mm 1 m/s 743 mmHg 97%
    03:00 +26°C° 0 mm 1 m/s 743 mmHg 97%
    04:00 +26°C° 0 mm 1 m/s 743 mmHg 98%
    05:00 +26°C° 0 mm 1 m/s 743 mmHg 96%
    06:00 +27°C° 0 mm 1 m/s 744 mmHg 95%
    07:00 +27°C° 0 mm 2 m/s 745 mmHg 94%
    08:00 +29°C° 0.5 mm 2 m/s 745 mmHg 86%
    09:00 +30°C° 0.5 mm 2 m/s 745 mmHg 79%
    10:00 +32°C° 0.5 mm 2 m/s 745 mmHg 72%
    11:00 +32°C° 0.8 mm 2 m/s 744 mmHg 74%
    12:00 +32°C° 0.8 mm 2 m/s 743 mmHg 76%
    13:00 +32°C° 0.8 mm 2 m/s 742 mmHg 78%
    14:00 +32°C° 0.3 mm 2 m/s 741 mmHg 76%
    15:00 +32°C° 0.3 mm 2 m/s 741 mmHg 74%
    16:00 +32°C° 0.3 mm 2 m/s 740 mmHg 72%
    17:00 +31°C° 0 mm 1 m/s 740 mmHg 77%
    18:00 +30°C° 0 mm 1 m/s 740 mmHg 81%
    19:00 +28°C° 0 mm 1 m/s 741 mmHg 86%
    20:00 +28°C° 0 mm 1 m/s 741 mmHg 87%
    21:00 +27°C° 0 mm 1 m/s 742 mmHg 88%
    22:00 +27°C° 0 mm 1 m/s 743 mmHg 89%
    23:00 +26°C° 0 mm 1 m/s 742 mmHg 90%

    22 Ianuarie, Miercuri

    Timp Temperatura Precipitaţii Vânt Presiune Umiditate
    00:00 +26°C° 0 mm 1 m/s 742 mmHg 91%
    01:00 +26°C° 0 mm 1 m/s 742 mmHg 92%
    02:00 +26°C° 0 mm 1 m/s 742 mmHg 94%
    03:00 +25°C° 0 mm 1 m/s 742 mmHg 96%
    04:00 +25°C° 0 mm 1 m/s 742 mmHg 97%
    05:00 +26°C° 0 mm 1 m/s 742 mmHg 94%
    06:00 +26°C° 0 mm 1 m/s 743 mmHg 90%
    07:00 +27°C° 0 mm 2 m/s 744 mmHg 87%
    08:00 +29°C° 0 mm 2 m/s 744 mmHg 79%
    09:00 +31°C° 0 mm 2 m/s 744 mmHg 70%
    10:00 +32°C° 0 mm 2 m/s 744 mmHg 62%
    11:00 +35°C° 0 mm 2 m/s 743 mmHg 58%
    12:00 +35°C° 0 mm 1 m/s 742 mmHg 53%
    13:00 +36°C° 0 mm 1 m/s 741 mmHg 49%
    14:00 +35°C° 0 mm 1 m/s 741 mmHg 54%
    15:00 +35°C° 0 mm 1 m/s 740 mmHg 59%
    16:00 +34°C° 0 mm 1 m/s 739 mmHg 63%
    17:00 +32°C° 0.2 mm 1 m/s 740 mmHg 71%
    18:00 +30°C° 0.2 mm 1 m/s 741 mmHg 78%
    19:00 +28°C° 0.2 mm 2 m/s 741 mmHg 85%
    20:00 +28°C° 0.3 mm 1 m/s 742 mmHg 88%
    21:00 +27°C° 0.3 mm 1 m/s 742 mmHg 90%
    22:00 +27°C° 0.3 mm 1 m/s 743 mmHg 93%
    23:00 +26°C° 0 mm 1 m/s 743 mmHg 93%

    23 Ianuarie, Joi

    Timp Temperatura Precipitaţii Vânt Presiune Umiditate
    00:00 +26°C° 0 mm 1 m/s 742 mmHg 93%
    01:00 +26°C° 0 mm 1 m/s 742 mmHg 94%
    02:00 +26°C° 0 mm 1 m/s 742 mmHg 94%
    03:00 +24°C° 0 mm 0 m/s 742 mmHg 95%
    04:00 +23°C° 0 mm 0 m/s 741 mmHg 96%
    05:00 +24°C° 0 mm 0 m/s 742 mmHg 94%
    06:00 +24°C° 0 mm 0 m/s 743 mmHg 92%
    07:00 +25°C° 0 mm 0 m/s 744 mmHg 90%
    08:00 +27°C° 0 mm 0 m/s 744 mmHg 82%
    09:00 +31°C° 0 mm 1 m/s 744 mmHg 73%
    10:00 +32°C° 0 mm 1 m/s 744 mmHg 65%
    11:00 +31°C° 0.5 mm 1 m/s 744 mmHg 70%
    12:00 +30°C° 0.5 mm 1 m/s 743 mmHg 75%
    13:00 +30°C° 0.5 mm 1 m/s 742 mmHg 80%
    14:00 +29°C° 0.3 mm 1 m/s 742 mmHg 82%
    15:00 +28°C° 0.3 mm 1 m/s 741 mmHg 84%
    16:00 +27°C° 0.3 mm 1 m/s 741 mmHg 86%
    17:00 +27°C° 0 mm 1 m/s 741 mmHg 89%
    18:00 +26°C° 0 mm 1 m/s 742 mmHg 92%
    19:00 +24°C° 0 mm 0 m/s 742 mmHg 95%
    20:00 +24°C° 0 mm 0 m/s 743 mmHg 95%
    21:00 +24°C° 0 mm 0 m/s 743 mmHg 95%
    22:00 +23°C° 0 mm 0 m/s 744 mmHg 95%
    23:00 +23°C° 0 mm 0 m/s 743 mmHg 96%
    Arată mai mult